Location: Aufkirchen
(47.9603°N, 11.3653°E)
Time: 16:09:01
(UTC+01:00)

Transit 2A - Pass Details

Date: 04 December 2020
Orbit: 599 x 960 km, 66.7° (Epoch: 26 January)

Event Time Altitude Azimuth Distance (km) Brightness Sun altitude
Rises 15:16:22 0° 178° (S) 3,623 10.2 7.7°
Reaches altitude 10° 15:19:16 10° 167° (SSE) 2,669 9.3 7.3°
Maximum altitude 15:24:30 29° 110° (ESE) 1,644 7.6 6.7°
Drops below altitude 10° 15:29:32 10° 54° (NE) 2,559 8.1 6.1°
Sets 15:32:15 0° 43° (NE) 3,449 8.7 5.8°
